Temperature
16 16 16 16 16 16 16 15 15 15 15 15 15 14 14 14 14 14 14 14 14 14 14 14 14 14 14 13 13 13 13 13 13 12 12 12 12 12 12 12 12 12 11
16 16 16 16 16 16 16 15 15 15 15 15 15 14 14 14 14 14 14 14 14 14 14 14 13 13 13 13 13 13 13 13 13 12 12 12 12 12 12 11 11 11 11
16 16 16 16 16 16 16 15 15 15 15 15 15 15 14 14 14 14 14 14 14 14 14 13 13 13 13 13 13 13 13 13 12 12 12 12 12 12 11 11 11 11 11
17 16 16 16 16 16 16 16 15 15 15 15 15 15 14 14 14 14 14 14 14 14 13 13 13 13 13 13 13 13 12 12 12 12 12 12 12 11 11 11 11 11 11
17 16 16 16 16 16 16 16 15 15 15 15 15 15 14 14 14 14 14 14 14 14 13 13 13 13 13 13 13 12 12 12 12 12 12 12 12 11 11 11 11 11 10
17 17 16 16 16 16 16 15 15 15 15 15 15 15 14 14 14 14 14 14 14 13 13 13 13 13 13 13 12 12 12 12 12 12 12 12 11 11 11 11 10 10 10
17 16 16 16 16 16 16 15 15 15 15 15 15 15 14 14 14 14 14 14 13 13 13 13 13 13 13 13 12 12 12 12 12 11 11 11 11 11 10 10 10 10 9
17 16 16 16 16 16 16 15 15 15 15 15 15 14 14 14 14 14 14 13 13 13 13 13 13 13 13 12 12 12 12 12 11 11 11 11 11 10 10 10 10 9 9
17 16 16 16 16 16 16 15 15 15 15 15 15 14 14 14 14 14 13 13 13 13 13 13 13 13 12 12 12 12 12 12 11 11 11 11 10 10 10 10 9 9 9
17 16 16 16 16 16 16 15 15 15 15 15 15 14 14 14 14 14 13 13 13 13 13 13 13 12 12 12 12 12 12 12 11 11 11 10 10 10 10 9 9 9 9
16 16 16 16 16 16 15 15 15 15 15 15 14 14 14 14 14 14 13 13 13 13 13 13 12 12 12 12 12 11 11 11 11 11 10 10 10 10 9 9 9 8 8
16 16 16 16 15 15 15 15 15 15 15 14 14 14 14 14 14 14 13 13 13 13 13 12 12 12 12 11 11 11 11 11 11 10 10 10 10 9 9 9 8 8 8
16 16 16 16 15 15 15 15 15 14 14 14 14 14 14 14 14 13 13 13 13 13 12 12 12 12 11 11 11 11 11 10 10 10 10 10 9 9 9 8 8 8 7
16 16 16 15 15 15 15 14 14 14 14 14 14 14 14 14 13 13 13 13 12 12 12 12 12 11 11 11 11 10 10 10 10 9 9 9 9 9 8 8 8 7 7
16 15 15 15 15 15 14 14 14 14 14 14 14 13 13 13 13 13 13 12 12 12 12 11 11 11 11 11 10 10 10 10 9 9 9 9 8 8 8 8 7 7 7
15 15 15 15 14 14 14 14 14 14 13 13 13 13 13 13 12 12 12 12 12 12 11 11 11 11 11 10 10 10 10 9 9 9 8 8 8 8 7 7 7 6 6
15 15 14 14 14 14 14 14 14 14 13 13 13 13 12 12 12 12 12 12 11 11 11 11 11 10 10 10 10 10 9 9 9 8 8 8 7 7 7 7 6 6 5
15 14 14 14 14 14 14 13 13 13 13 13 13 12 12 12 12 11 11 11 11 11 10 10 10 10 10 9 9 9 9 9 8 8 8 7 7 7 6 6 5 5 5
14 14 14 14 13 13 13 13 13 12 12 12 12 12 12 12 11 11 11 11 10 10 10 10 10 9 9 9 9 9 8 8 8 7 7 7 7 6 6 5 5 5 4
14 14 13 13 13 13 13 12 12 12 12 12 12 11 11 11 11 11 10 10 10 10 10 9 9 9 9 9 8 8 8 8 7 7 7 6 6 6 5 5 4 4 4
13 13 13 13 13 12 12 12 12 12 11 11 11 11 10 10 10 10 10 10 9 9 9 9 9 9 8 8 8 8 7 7 7 7 6 6 5 5 5 4 4 3 3
13 12 12 12 12 12 11 11 11 11 11 11 10 10 10 10 10 10 9 9 9 9 9 8 8 8 8 8 7 7 7 7 6 6 6 5 5 5 4 4 3 3 3
12 12 12 11 11 11 11 11 11 11 10 10 10 10 10 9 9 9 9 9 9 9 8 8 8 8 8 7 7 7 6 6 6 5 5 5 4 4 4 3 3 3 2
11 11 11 11 11 11 11 11 10 10 10 10 9 9 9 9 9 9 9 8 8 8 8 8 7 7 7 7 7 6 6 5 5 5 4 4 4 4 3 3 3 2 2
11 11 11 10 10 10 10 10 10 10 10 9 9 9 9 9 8 8 8 8 8 8 7 7 7 7 7 6 6 6 5 5 5 4 4 4 3 3 3 3 2 2 1
10 10 10 10 10 10 10 9 9 9 9 9 9 8 8 8 8 8 7 7 7 7 7 7 7 6 6 6 6 5 5 4 4 4 4 3 3 3 2 2 2 1 1
Wind_Speed
6 5 5 4 4 4 4 4 4 3 3 3 3 3 2 2 2 3 2 3 3 2 2 3 2 2 2 2 2 2 2 3 3 0 1 1 2 2 5 6 7 7 6
6 5 5 4 4 4 4 4 4 4 4 3 3 3 3 2 2 3 3 3 3 2 2 2 2 2 2 2 2 2 2 2 3 2 1 1 1 2 2 3 5 5 6
5 5 5 5 5 5 4 4 4 4 4 3 4 3 3 2 2 2 3 3 2 2 2 2 2 3 2 1 2 2 2 2 2 2 0 1 1 1 2 3 4 5 5
5 5 5 6 6 5 5 4 4 5 4 4 4 4 3 3 3 3 3 3 2 2 2 2 2 3 3 3 2 3 3 3 3 2 1 1 1 1 1 2 3 3 3
5 5 5 5 4 4 4 4 4 4 4 4 4 3 3 3 3 4 3 3 3 2 1 1 2 3 4 4 3 4 4 3 2 2 1 0 1 1 1 1 1 2 2
6 6 4 4 4 5 4 4 4 4 4 4 4 4 4 4 5 7 6 4 3 3 2 1 1 1 2 2 3 5 6 5 4 3 1 2 2 2 1 1 0 1 2
6 5 5 5 5 5 5 4 5 5 4 4 4 4 4 5 7 7 7 5 4 3 3 2 1 1 2 2 1 2 2 3 5 5 4 4 3 4 2 1 1 1 2
6 5 5 5 5 4 4 5 5 4 4 4 4 5 4 5 7 7 7 5 4 3 3 3 3 2 2 3 3 2 0 0 2 3 4 4 4 4 5 3 3 1 2
6 6 6 6 5 5 5 5 4 4 4 4 4 5 5 5 7 8 7 4 3 3 3 3 4 3 4 5 4 3 0 1 1 2 2 1 1 2 4 3 1 1 2
7 6 6 6 6 6 6 4 3 4 4 4 4 4 5 5 6 8 8 4 4 3 2 2 4 5 5 5 5 4 3 2 0 1 2 2 3 2 2 3 3 2 1
6 5 5 5 6 5 4 3 3 4 3 3 3 3 4 5 6 7 8 5 5 4 3 3 3 5 6 6 6 5 5 3 2 1 1 1 2 2 2 1 2 3 3
5 5 5 5 5 4 4 3 3 4 4 3 3 2 2 3 5 6 8 8 7 5 4 4 4 5 5 5 4 5 5 3 2 2 1 0 1 1 1 1 0 1 2
5 5 4 4 4 4 5 5 3 4 4 3 3 3 3 2 3 5 6 7 8 5 4 6 5 5 4 3 4 5 4 3 2 2 2 2 2 2 0 1 1 1 2
6 5 5 5 4 4 4 4 4 4 4 4 4 4 3 2 3 2 2 3 4 3 2 3 3 3 2 2 2 2 2 3 3 3 3 2 1 0 0 0 0 1 1
5 5 4 4 5 4 4 4 5 5 6 6 6 5 5 5 6 7 5 4 4 4 3 1 1 1 1 1 1 1 1 2 2 2 2 2 1 1 1 1 1 0 1
5 5 4 4 4 4 4 1 2 3 5 7 7 6 5 7 6 7 8 7 7 8 5 3 3 3 4 4 3 3 2 3 3 3 3 3 2 2 1 1 0 1 1
5 5 4 5 5 4 4 4 2 1 1 4 5 6 6 5 6 6 7 6 7 8 4 4 4 4 4 4 4 4 3 3 3 3 3 3 2 2 2 1 1 1 2
5 5 5 5 5 5 5 4 4 3 2 2 2 4 5 5 5 5 6 4 3 3 3 4 5 5 5 5 4 4 3 3 3 3 3 3 3 2 2 2 2 3 2
4 4 4 4 4 4 4 4 3 4 3 2 1 1 2 2 3 4 6 3 4 4 4 4 4 5 4 4 4 4 4 3 3 3 3 3 3 3 3 3 3 4 3
3 3 3 3 3 3 4 4 4 4 3 3 3 3 1 1 1 2 3 3 3 4 4 4 3 4 4 4 4 4 3 3 3 3 3 4 4 4 4 4 4 3 3
3 3 3 3 3 3 4 4 4 4 4 4 3 3 5 3 4 4 4 4 4 4 4 4 3 3 3 3 3 4 4 4 4 4 4 4 4 4 4 3 3 3 3
3 3 3 3 3 3 3 3 4 4 4 4 2 2 5 3 3 4 4 4 4 4 4 4 4 4 4 4 5 4 4 4 4 4 4 4 4 3 3 3 3 3 3
3 3 3 3 3 3 2 2 3 3 3 3 3 2 3 4 4 4 4 3 3 3 4 4 4 4 4 5 6 6 5 5 5 5 5 4 3 3 3 3 4 4 3
3 3 3 3 3 3 3 3 3 3 3 3 3 3 3 4 3 4 3 3 3 3 3 4 4 5 5 4 5 5 6 6 6 6 6 5 4 3 3 3 3 3 3
2 3 3 3 3 3 3 3 3 3 3 3 3 3 3 3 3 3 3 3 3 3 3 3 4 4 5 6 5 5 6 7 6 5 5 5 4 4 3 3 3 3 3
3 3 3 3 3 3 3 3 3 3 3 3 3 3 3 3 3 3 3 3 3 3 3 3 4 5 5 5 6 6 7 7 7 6 6 5 4 3 3 3 3 3 3
Wind_Direction
182 183 178 183 181 167 169 179 169 154 150 149 146 141 135 128 121 118 116 109 102 84 81 101 90 94 95 87 94 99 103 122 140 300 326 346 8 11 11 19 21 21 22
180 175 180 179 172 172 180 185 168 163 165 163 154 145 142 144 143 139 138 129 129 128 116 110 106 108 95 88 98 104 112 125 143 155 320 340 343 346 358 4 12 18 17
175 174 177 179 179 185 186 181 172 168 164 159 152 157 160 157 154 157 150 147 149 153 149 147 154 132 125 119 115 118 117 114 121 143 209 331 341 359 14 10 13 7 11
171 175 183 190 189 186 178 172 172 170 168 168 168 171 174 171 166 164 152 146 141 140 156 167 169 167 173 164 152 150 133 117 117 125 123 338 329 337 34 9 353 355 354
170 179 192 188 177 168 168 174 174 175 180 177 173 173 175 176 174 167 163 158 155 150 147 186 192 184 186 175 167 167 152 141 136 133 150 349 315 328 303 288 315 326 331
175 186 179 170 166 170 174 173 170 175 175 171 180 179 185 194 180 177 170 167 167 168 186 240 250 196 181 173 171 168 166 163 168 165 187 209 248 239 236 230 287 354 321
176 179 171 171 176 182 179 172 181 182 174 176 185 183 194 206 193 188 185 172 173 186 195 201 192 128 129 122 117 136 168 186 183 175 184 214 219 216 190 213 225 227 257
175 179 178 174 177 175 171 185 189 179 177 185 191 194 199 213 203 196 187 170 174 194 203 198 191 213 185 160 140 109 67 252 201 183 194 218 221 207 193 196 202 220 281
179 186 184 178 174 172 183 194 187 174 183 188 191 193 200 221 210 197 175 160 175 204 214 201 195 212 208 176 151 150 139 311 112 168 185 206 242 214 171 135 135 105 303
193 191 183 177 176 184 194 191 181 177 188 185 195 200 203 218 210 196 177 167 185 210 227 224 215 212 210 189 174 172 195 244 211 62 44 26 35 46 149 164 179 181 232
186 172 167 172 179 182 179 172 170 171 169 183 203 219 216 222 218 207 187 181 192 200 212 232 230 216 211 200 184 187 204 192 152 137 83 24 29 34 32 43 174 184 200
164 165 171 172 175 168 161 164 163 163 169 188 201 236 246 238 218 211 202 200 196 193 211 221 219 204 194 189 185 191 189 162 137 128 111 317 305 299 315 5 118 188 205
159 169 174 168 168 165 166 168 162 167 177 190 192 214 242 243 229 217 211 209 203 200 213 208 202 195 183 183 187 185 174 160 157 171 209 236 240 247 286 359 15 37 16
172 178 174 168 170 167 170 175 177 186 192 195 199 210 223 225 226 221 209 199 193 195 198 183 174 172 165 173 170 165 170 183 185 198 214 227 232 250 298 278 285 324 341
180 182 180 178 176 177 180 192 198 207 203 201 206 202 203 227 233 213 196 199 194 187 157 129 137 161 183 195 186 193 189 183 198 206 202 206 215 221 265 266 227 239 261
178 186 186 182 179 177 176 186 237 224 222 216 212 204 218 224 226 210 205 203 193 174 156 176 199 202 206 210 210 214 210 209 210 204 206 208 209 214 236 263 225 215 248
183 189 187 183 180 181 181 183 209 311 242 223 216 211 217 223 218 206 199 193 188 174 181 199 207 211 215 215 212 210 215 216 204 200 206 212 212 215 220 235 241 246 260
179 186 187 189 186 186 190 192 191 193 221 270 243 220 215 216 208 190 171 147 176 192 207 210 214 213 213 212 212 213 216 209 204 208 210 209 206 210 220 229 231 234 250
176 181 184 184 186 187 185 184 187 194 201 217 252 273 224 197 183 174 160 180 201 215 223 226 223 216 215 214 216 213 206 208 209 207 210 210 206 204 219 226 229 236 245
181 179 167 171 176 179 181 185 192 196 201 205 218 221 192 137 167 195 203 214 215 219 220 226 231 228 216 209 209 208 205 205 205 211 218 216 211 209 217 225 228 236 247
175 180 167 165 179 188 192 195 197 198 204 214 227 219 194 198 205 209 218 225 225 225 222 221 223 222 221 211 205 206 207 213 213 212 216 219 215 216 219 222 228 233 242
174 176 179 183 186 190 199 201 196 200 207 214 225 219 205 207 210 215 221 230 231 228 220 213 218 217 213 210 207 206 212 218 219 217 219 218 217 219 217 221 229 235 240
175 174 176 181 185 189 188 194 199 203 209 211 207 211 212 217 220 222 226 229 224 220 212 210 214 223 216 212 207 203 208 217 218 213 210 212 213 218 219 224 229 236 244
174 177 181 183 180 182 194 204 210 212 211 211 211 213 217 219 221 225 227 225 218 220 210 208 210 212 211 212 210 207 210 214 209 204 200 200 206 216 219 223 227 231 242
181 184 188 188 189 193 199 208 214 216 215 213 213 219 221 218 222 225 223 216 215 222 216 206 206 207 211 213 213 212 209 206 203 195 190 192 199 208 215 218 222 228 240
192 192 194 196 196 197 201 209 216 219 222 224 219 220 221 218 220 223 220 215 215 218 217 205 205 206 210 212 216 212 206 204 202 198 187 184 192 205 207 214 219 228 239
Height
1541 1543 1545 1546 1547 1549 1549 1550 1551 1552 1553 1554 1554 1555 1556 1557 1557 1557 1558 1558 1558 1558 1558 1558 1558 1558 1558 1558 1558 1558 1558 1557 1557 1557 1557 1557 1556 1556 1555 1554 1553 1551 1550
1539 1541 1543 1544 1546 1547 1548 1549 1551 1552 1552 1553 1554 1555 1556 1556 1557 1557 1557 1558 1558 1558 1558 1558 1558 1558 1558 1558 1557 1557 1557 1557 1557 1556 1556 1556 1556 1555 1554 1553 1552 1551 1549
1538 1540 1541 1543 1544 1545 1547 1548 1550 1551 1552 1553 1553 1554 1555 1555 1556 1556 1557 1557 1557 1557 1557 1557 1557 1557 1557 1557 1557 1557 1557 1556 1556 1556 1555 1555 1555 1554 1553 1552 1551 1550 1548
1536 1538 1539 1541 1542 1544 1545 1547 1548 1549 1550 1552 1553 1553 1554 1555 1555 1556 1556 1557 1557 1557 1557 1557 1557 1557 1557 1557 1556 1556 1556 1556 1556 1555 1555 1554 1554 1553 1552 1551 1550 1549 1547
1534 1536 1537 1539 1541 1542 1544 1545 1547 1548 1549 1550 1551 1552 1553 1553 1554 1555 1555 1556 1556 1556 1556 1556 1556 1556 1556 1556 1556 1556 1555 1555 1555 1554 1553 1553 1552 1551 1550 1549 1548 1547 1545
1532 1534 1535 1537 1539 1540 1542 1544 1545 1546 1547 1549 1550 1551 1551 1552 1553 1553 1554 1555 1555 1555 1555 1555 1555 1555 1555 1555 1555 1555 1554 1554 1553 1553 1552 1551 1550 1550 1549 1548 1547 1545 1544
1530 1532 1533 1535 1537 1538 1540 1542 1543 1545 1546 1547 1548 1549 1550 1550 1551 1552 1553 1553 1554 1554 1554 1554 1554 1554 1554 1553 1553 1553 1553 1552 1552 1552 1550 1550 1549 1548 1547 1546 1545 1543 1542
1527 1529 1531 1533 1535 1536 1538 1539 1541 1542 1544 1545 1546 1547 1548 1549 1550 1550 1551 1552 1552 1552 1552 1553 1552 1552 1552 1552 1551 1551 1550 1550 1550 1549 1549 1548 1547 1546 1545 1545 1543 1542 1540
1524 1527 1529 1531 1532 1534 1535 1537 1538 1540 1541 1543 1544 1545 1546 1547 1548 1549 1549 1549 1550 1550 1550 1550 1550 1550 1550 1549 1549 1548 1548 1548 1547 1547 1546 1546 1545 1544 1543 1542 1540 1539 1537
1522 1524 1527 1528 1530 1532 1533 1535 1536 1537 1539 1540 1541 1542 1543 1544 1545 1546 1547 1547 1547 1547 1547 1547 1547 1547 1547 1547 1546 1546 1545 1545 1545 1544 1544 1543 1542 1541 1540 1539 1538 1536 1534
1520 1522 1524 1526 1528 1529 1531 1532 1533 1534 1536 1537 1538 1539 1540 1541 1542 1543 1544 1544 1544 1544 1544 1544 1544 1544 1544 1544 1544 1543 1543 1542 1542 1541 1540 1540 1539 1538 1537 1536 1535 1534 1532
1518 1520 1522 1523 1525 1526 1528 1529 1530 1531 1532 1534 1535 1536 1537 1538 1539 1539 1540 1541 1541 1541 1541 1541 1541 1541 1541 1541 1541 1540 1540 1539 1538 1538 1537 1536 1535 1534 1533 1532 1531 1530 1529
1515 1517 1519 1521 1522 1523 1525 1526 1527 1528 1529 1530 1531 1532 1533 1534 1535 1536 1536 1537 1537 1537 1538 1538 1538 1538 1538 1537 1537 1537 1537 1536 1535 1534 1533 1532 1532 1531 1530 1529 1528 1526 1525
1512 1514 1515 1517 1518 1520 1521 1523 1524 1525 1526 1527 1528 1528 1530 1530 1531 1532 1532 1533 1533 1533 1533 1534 1534 1534 1534 1534 1534 1533 1533 1532 1531 1530 1529 1529 1528 1527 1526 1525 1524 1522 1521
1508 1510 1512 1513 1514 1516 1517 1519 1520 1522 1523 1524 1524 1525 1526 1526 1527 1528 1528 1528 1529 1529 1529 1529 1529 1529 1529 1529 1529 1529 1529 1528 1528 1527 1526 1525 1524 1523 1522 1521 1520 1518 1517
1505 1506 1508 1509 1511 1512 1513 1515 1517 1518 1519 1520 1521 1522 1522 1523 1523 1523 1524 1524 1524 1524 1524 1524 1524 1525 1525 1525 1525 1524 1524 1524 1524 1523 1522 1521 1520 1519 1518 1517 1516 1514 1512
1501 1503 1504 1505 1507 1508 1509 1511 1512 1514 1515 1516 1516 1517 1518 1518 1519 1519 1519 1519 1520 1520 1519 1519 1520 1520 1520 1520 1520 1520 1520 1520 1520 1519 1518 1517 1516 1515 1514 1513 1511 1510 1508
1498 1499 1500 1502 1503 1504 1506 1507 1508 1509 1510 1510 1512 1512 1513 1514 1514 1514 1515 1515 1514 1515 1515 1515 1515 1515 1515 1515 1516 1515 1515 1515 1515 1515 1514 1513 1512 1511 1510 1508 1507 1506 1504
1494 1495 1497 1498 1499 1500 1502 1503 1504 1505 1506 1506 1507 1508 1508 1509 1509 1510 1510 1510 1510 1510 1510 1510 1510 1510 1511 1511 1511 1511 1510 1510 1510 1510 1509 1508 1507 1506 1505 1504 1503 1501 1500
1491 1492 1493 1494 1495 1497 1498 1499 1500 1501 1501 1502 1503 1503 1504 1504 1504 1504 1505 1505 1505 1505 1505 1505 1506 1506 1506 1506 1506 1506 1505 1505 1505 1505 1504 1503 1502 1501 1500 1499 1498 1497 1495
1487 1488 1489 1491 1492 1492 1494 1495 1496 1497 1497 1498 1499 1499 1500 1500 1499 1499 1500 1500 1500 1500 1500 1501 1501 1501 1501 1501 1501 1501 1501 1500 1500 1499 1499 1498 1497 1496 1495 1494 1493 1492 1491
1484 1484 1485 1486 1488 1489 1490 1491 1492 1492 1493 1494 1494 1495 1495 1495 1495 1495 1495 1495 1495 1496 1496 1496 1496 1496 1496 1496 1496 1496 1495 1495 1494 1494 1493 1493 1492 1491 1490 1489 1488 1487 1486
1480 1481 1482 1483 1484 1485 1486 1487 1488 1488 1489 1489 1490 1490 1490 1490 1490 1490 1490 1491 1491 1491 1491 1491 1491 1491 1491 1491 1491 1490 1490 1489 1489 1489 1488 1487 1487 1486 1485 1483 1482 1481 1480
1477 1477 1478 1479 1480 1481 1482 1483 1483 1484 1484 1485 1485 1485 1485 1485 1485 1486 1486 1486 1486 1486 1486 1486 1486 1486 1486 1485 1485 1485 1484 1484 1484 1483 1483 1482 1481 1480 1479 1478 1477 1476 1475
1473 1474 1475 1475 1476 1477 1478 1478 1479 1480 1480 1480 1480 1480 1481 1481 1481 1481 1481 1481 1481 1481 1481 1481 1481 1480 1480 1480 1480 1479 1479 1478 1478 1477 1477 1477 1476 1475 1474 1473 1472 1471 1470
1469 1470 1470 1471 1472 1473 1473 1474 1474 1475 1475 1476 1476 1476 1476 1476 1476 1476 1476 1476 1476 1476 1475 1475 1475 1475 1475 1475 1474 1474 1473 1473 1472 1472 1471 1471 1470 1470 1469 1468 1467 1466 1466